Goshen, IN

12:49 AM EDT on June 27, 2017 (GMT -0400)
Goshen Municipal

Weather History for KGSH - February, 2014

Change the Weather History Date:

Saturday, February 22, 2014

  Actual Average Record
Temperature  
Mean Temperature 32 °F -  
Max Temperature 37 °F 40 °F 65 °F (1983)
Min Temperature 27 °F 26 °F -12 °F (1963)
Degree Days  
Heating Degree Days 33    
Moisture  
Dew Point 22 °F    
Average Humidity 66    
Maximum Humidity 85    
Minimum Humidity 47    
Precipitation  
Precipitation 0.00 in - - ()
Sea Level Pressure  
Sea Level Pressure 29.96 in    
Wind  
Wind Speed 11 mph (WSW)    
Max Wind Speed 17 mph    
Max Gust Speed 22 mph    
Visibility 10 miles    
Events Snow    
Averages and records for this station are not official NWS values.
T = Trace of Precipitation, MM = Missing Value Source: NWS Daily Summary

Daily Weather History Graph

Daily Weather History Graph

Search for Another Location

Airport or City:

Trip Planner

Search our weather history database for the weather conditions in past years. The results will help you decide how hot, cold, wet, or windy it might be!

Date:

Astronomy

Feb. 22, 2014 Rise Set
Actual Time 7:28 AM EST 6:25 PM EST
Civil Twilight 7:00 AM EST 6:53 PM EST
Nautical Twilight 6:28 AM EST 7:25 PM EST
Astronomical Twilight 5:56 AM EST 7:57 PM EST
Moon 1:24 AM EST (2/22) 11:33 AM EST (2/22)
Length of Visible Light 11h 53m
Length of Day
10h 56m
Waning Gibbous, 50% of the Moon is Illuminated
Feb 22
Waning Gibbous
Feb 22
Last Quarter
Mar 1
New
Mar 8
First Quarter
Mar 16
Full

Hourly Weather History & Observations

Time (EST) Temp. Windchill Dew Point Humidity Pressure Visibility Wind Dir Wind Speed Gust Speed Precip Events Conditions
12:10 AM 36.0 °F 27.5 °F 28.9 °F 76% 29.81 in 2.5 mi SW 12.7 mph 21.9 mph 0.00 in Snow Light Snow
12:17 AM 37.0 °F 30.4 °F 28.0 °F 70% 29.81 in 8.0 mi WSW 9.2 mph - 0.00 in Snow Light Snow
12:34 AM 36.0 °F 28.0 °F 28.9 °F 76% 29.80 in 7.0 mi West 11.5 mph - 0.00 in Snow Light Snow
12:53 AM 36.0 °F 27.1 °F 28.9 °F 76% 29.83 in 10.0 mi WSW 13.8 mph - 0.00 in   Overcast
1:53 AM 36.0 °F 28.5 °F 27.0 °F 70% 29.83 in 10.0 mi WSW 10.4 mph - N/A   Overcast
2:53 AM 34.0 °F 26.0 °F 21.9 °F 61% 29.83 in 10.0 mi WSW 10.4 mph - N/A   Mostly Cloudy
3:53 AM 32.0 °F 22.5 °F 18.0 °F 56% 29.85 in 10.0 mi WSW 12.7 mph - N/A   Clear
4:53 AM 28.9 °F 18.2 °F 10.9 °F 47% 29.88 in 10.0 mi WSW 13.8 mph - N/A   Clear
5:53 AM 27.0 °F 16.7 °F 12.9 °F 56% 29.91 in 10.0 mi West 11.5 mph - N/A   Clear
6:53 AM 27.0 °F 17.3 °F 15.1 °F 61% 29.95 in 10.0 mi WSW 10.4 mph - N/A   Clear
7:53 AM 27.0 °F 16.1 °F 16.0 °F 63% 29.98 in 10.0 mi SW 12.7 mph - N/A   Clear
8:53 AM 28.0 °F 19.3 °F 17.1 °F 63% 29.99 in 10.0 mi SW 9.2 mph - N/A   Clear
9:53 AM 30.0 °F 19.5 °F 19.0 °F 64% 30.02 in 10.0 mi WSW 13.8 mph - N/A   Clear
10:53 AM 32.0 °F 20.8 °F 19.0 °F 59% 30.03 in 10.0 mi WSW 17.3 mph - N/A   Overcast
11:53 AM 34.0 °F 24.2 °F 18.0 °F 52% 30.04 in 10.0 mi West 15.0 mph - N/A   Mostly Cloudy
12:53 PM 35.1 °F 25.9 °F 17.1 °F 48% 30.02 in 10.0 mi WSW 13.8 mph - N/A   Overcast
1:53 PM 35.1 °F 27.4 °F 18.0 °F 50% 30.02 in 10.0 mi WSW 10.4 mph - N/A   Overcast
2:53 PM 36.0 °F 28.0 °F 19.0 °F 50% 30.00 in 10.0 mi WSW 11.5 mph - N/A   Overcast
3:53 PM 37.0 °F 30.4 °F 19.0 °F 48% 30.01 in 10.0 mi WSW 9.2 mph - N/A   Overcast
4:53 PM 36.0 °F 29.6 °F 21.0 °F 55% 30.00 in 10.0 mi SW 8.1 mph - N/A   Overcast
5:53 PM 34.0 °F 26.0 °F 26.1 °F 73% 30.00 in 10.0 mi SW 10.4 mph - N/A   Overcast
6:53 PM 33.1 °F 25.5 °F 27.0 °F 78% 30.01 in 10.0 mi SSW 9.2 mph - N/A   Mostly Cloudy
7:53 PM 32.0 °F 24.8 °F 28.0 °F 85% 30.02 in 10.0 mi SW 8.1 mph - N/A   Clear
8:53 PM 32.0 °F 23.6 °F 28.0 °F 85% 30.04 in 10.0 mi SW 10.4 mph - N/A   Mostly Cloudy
9:53 PM 32.0 °F 25.6 °F 28.0 °F 85% 30.04 in 10.0 mi WSW 6.9 mph - N/A   Mostly Cloudy
10:53 PM 32.0 °F 24.2 °F 27.0 °F 82% 30.04 in 10.0 mi WSW 9.2 mph - N/A   Mostly Cloudy
11:53 PM 30.9 °F 24.3 °F 26.1 °F 82% 30.03 in 10.0 mi West 6.9 mph - N/A   Mostly Cloudy